Regional Weather Roundup
Issued by NWS

Home | Current Version | Previous Version | Graphics & Text | Print | Product List | Glossary On
Versions: 1 2 3 4 5 6 7 8 9 10 11 12 13 14 15 16 17 18 19 20 21 22 23 24 25 26 27 28 29 30 31 32 33 34 35 36 37 38 39 40 41 42 43 44 45 46 47 48 49 50
000
ASUS43 KDMX 232306
RWRIA

WEATHER ROUNDUP FOR IOWA
NATIONAL WEATHER SERVICE DES MOINES IA
600 PM CDT SAT SEP 23 2017

NOTE: "FAIR" INDICATES FEW OR NO CLOUDS BELOW 12,000 FEET WITH NO
SIGNIFICANT WEATHER AND/OR OBSTRUCTIONS TO VISIBILITY.

* - THESE STATIONS ARE NOT NWS STATIONS...THUS NOT UNDER NWS
QUALITY CONTROL.  THEY ALSO DO NOT REPORT WEATHER SUCH
AS PRECIPITATION OR FOG.

IAZ001>003-012>014-020>022-031>034-043>046-240000-
   NORTHWEST IOWA

CITY           SKY/WX    TMP DP  RH WIND       PRES   REMARKS
CARROLL *      MOSUNNY   88  63  42 S14G23    29.92R HX  88
CHEROKEE *     MOSUNNY   84  65  52 S10       29.89S HX  86
DENISON *      SUNNY     86  64  48 S16       29.91R HX  87
LE MARS *      PTSUNNY   86  66  51 SE14      29.86R HX  88
ORANGE CITY *  PTSUNNY   86  66  51 S13G18    29.88R HX  88
SHELDON *      PTSUNNY   86  66  51 S10G20    29.87S HX  88
SIOUX CITY     CLOUDY    86  67  52 SE14G22   29.85R HX  89
SPENCER        PTSUNNY   86  65  49 S16       29.90S HX  88
STORM LAKE *   MOSUNNY   84  64  51 S14G22    29.92R HX  86
$$

IAZ055>058-069>071-079>083-090>094-240000-
   SOUTHWEST IOWA

CITY           SKY/WX    TMP DP  RH WIND       PRES   REMARKS
ATLANTIC *     SUNNY     90  61  37 S15       29.91S HX  89
AUDUBON *      SUNNY     88  63  42 S12       29.94R HX  88
CLARINDA *     SUNNY     90  63  40 S12G18    29.94R HX  90
COUNCIL BLFS * SUNNY     88  64  45 S17       29.90R HX  89
CRESTON *      SUNNY     88  63  42 S14G20    29.96S HX  88
HARLAN  *      SUNNY     88  63  42 S15G25    29.94R HX  88
LAMONI         SUNNY     88  66  48 SE9       29.95S HX  90
RED OAK *      SUNNY     90  63  40 S15G23    29.91R HX  90
SHENANDOAH *   SUNNY     90  63  40 S12G21    29.91R HX  90
$$

IAZ047>049-059>061-072>074-084-240000-
   CENTRAL IOWA

CITY           SKY/WX    TMP DP  RH WIND       PRES   REMARKS
AMES           MOSUNNY   85  66  53 S8        29.94S HX  87
ANKENY *       SUNNY     88  64  45 S12       29.95R HX  89
BOONE *        MOSUNNY   88  63  42 S10G16    29.94S HX  88
CHARITON *     SUNNY     86  64  48 S7        29.96S HX  87
DES MOINES     MOSUNNY   88  63  43 S12       29.93S HX  89
GRINNELL*      SUNNY     88  61  40 S8        29.98S HX  88
KNOXVILLE *    SUNNY     88  64  45 S7G13     29.95S HX  89
MARSHALLTOWN   SUNNY     89  64  43 S14       29.95F HX  90
NEWTON *       SUNNY     88  64  45 S9        29.96S HX  89
PELLA *        SUNNY     90  62  39 SE8       29.96S HX  90
PERRY *          N/A     90  56  31 S9G18     29.93S HX  88
$$

IAZ004>006-015-016-023>025-035-036-240000-
   NORTH CENTRAL IOWA

CITY           SKY/WX    TMP DP  RH WIND       PRES   REMARKS
ALGONA *       SUNNY     86  64  48 S10       29.92S HX  87
CLARION *      SUNNY     88  63  42 S10G22    29.94S HX  88
ESTHERVILLE    MOSUNNY   83  66  56 S10       29.91S HX  85
FORT DODGE *   SUNNY     88  63  43 VRB7      29.93S HX  89
MASON CITY     CLOUDY    87  61  41 S15       29.96F HX  87
FOREST CITY *    N/A     86  61  42 S14       29.94S HX  86
WEBSTER CITY * SUNNY     88  61  40 S10G18    29.92R HX  88
IOWA FALLS *     N/A     89  63  42 S8        29.97S HX  89
$$

IAZ007>011-017>019-026>030-037>042-050>054-066-240000-
   NORTHEAST IOWA

CITY           SKY/WX    TMP DP  RH WIND       PRES   REMARKS
CEDAR RAPIDS   SUNNY     90  62  39 SE7       29.98S HX  90
CHARLES CITY * SUNNY     88  61  40 S10       29.97F HX  88
CLINTON *      CLEAR    N/A N/A N/A S5        30.01S
DECORAH *      PTSUNNY   90  63  40 S8        29.98S HX  90
DUBUQUE        CLEAR     86  66  51 SE6       30.02S HX  88
MONTICELLO *   SUNNY     90  61  37 SE7G13    29.99S HX  89
OELWEIN *      MOSUNNY   90  63  40 S10       29.99S HX  90
WATERLOO       SUNNY     90  61  37 S8        29.95S HX  90
$$

IAZ064-065-067-068-078-240000-
   EAST CENTRAL IOWA

CITY           SKY/WX    TMP DP  RH WIND       PRES   REMARKS
DAVENPORT      CLEAR     88  65  46 SE6       30.01F HX  90
IOWA CITY      SUNNY     92  62  36 S6        29.99R HX  92
MUSCATINE *    SUNNY     91  63  38 SE7       29.98S HX  92
QUAD CITIES    CLEAR     87  67  51 SE5       29.99S HX  90
$$

IAZ062-063-075>077-085>089-095>099-240000-
   SOUTHEAST IOWA

CITY           SKY/WX    TMP DP  RH WIND       PRES   REMARKS
BURLINGTON     SUNNY     90  64  42 SE8       29.98S HX  91
FAIRFIELD *    MOSUNNY   90  61  37 SE7       29.97S HX  89
FORT MADISON * SUNNY     91  63  38 SE8       29.99S HX  92
KEOKUK *       SUNNY     90  63  40 SE12      29.97S HX  90
OSKALOOSA *      N/A     89  61  38 S8        29.97S HX  89
OTTUMWA        SUNNY     89  63  41 SE13      29.96F HX  90
WASHINGTON *   SUNNY     90  64  43 VRB7G13   29.99S HX  91
$$

ABBREVIATIONS USED IN REMARKS
   TC - TEMPERATURES IN CELSIUS
  WCI - WIND CHILL INDEX
   HX - HEAT INDEX
  VSB - VISIBILITY
$$





USA.gov is the U.S. government's official web portal to all federal, state and local government web resources and services.